�N����,����,�~����,�C��,���x,�C��,����,���ϕ���,�ő�u�ԕ���,�ő厞����,���˗�,�I�_���x,�n�����x,�ő啗���N��,DTYPE
"16/10/19","00:10",0.0,18.0,91.7,1012.6,328.2,1.7,2.9,346.4,0.00,16.7,20.3,"00:06:08",1
"16/10/19","00:20",0.0,18.1,91.4,1012.8,331.9,1.6,2.5,340.7,0.00,16.7,20.3,"00:10:24",1
"16/10/19","00:30",0.0,18.1,91.1,1012.3,333.6,1.7,2.7,335.1,0.00,16.7,20.1,"00:28:00",1
"16/10/19","00:40",0.0,18.1,91.4,1012.6,331.6,1.6,2.6,350.1,0.00,16.7,20.1,"00:33:04",1
"16/10/19","00:50",0.0,18.2,91.4,1012.8,333.5,1.7,2.6,340.0,0.00,16.8,20.2,"00:46:08",1
"16/10/19","01:00",0.0,18.2,91.1,1012.8,341.8,1.7,2.8,329.0,0.00,16.8,20.2,"00:59:20",1
"16/10/19","01:10",0.0,18.2,90.9,1012.6,333.2,1.6,2.4,337.8,0.00,16.7,20.2,"01:00:56",1
"16/10/19","01:20",0.0,18.0,91.0,1012.8,333.4,1.6,2.7,336.5,0.00,16.5,20.1,"01:13:12",1
"16/10/19","01:30",0.0,17.8,91.3,1012.8,321.2,1.2,2.2,326.2,0.00,16.4,20.2,"01:23:52",1
"16/10/19","01:40",0.0,17.6,91.7,1012.8,327.8,1.2,2.0,340.4,0.00,16.3,19.9,"01:32:48",1
"16/10/19","01:50",0.0,17.4,92.0,1012.6,329.2,1.2,1.9,332.2,0.00,16.1,19.8,"01:41:04",1
"16/10/19","02:00",0.0,17.2,92.3,1012.6,308.7,0.8,1.1,319.5,0.00,16.0,20.1,"01:50:24",1
"16/10/19","02:10",0.0,16.9,92.7,1012.6,303.6,0.7,1.0,326.4,0.00,15.8,20.0,"02:00:32",1
"16/10/19","02:20",0.0,16.7,93.2,1012.3,304.6,1.0,1.2,312.6,0.00,15.6,19.9,"02:16:16",1
"16/10/19","02:30",0.0,16.5,93.5,1012.6,313.2,0.3,0.8,315.3,0.00,15.5,19.9,"02:20:16",1
"16/10/19","02:40",0.0,16.4,94.2,1012.6,318.5,1.1,1.7,333.1,0.00,15.5,19.7,"02:32:48",1
"16/10/19","02:50",0.0,16.2,94.7,1012.3,298.9,0.7,1.0,314.0,0.00,15.4,19.8,"02:40:16",1
"16/10/19","03:00",0.0,16.5,95.6,1012.3,317.3,1.1,2.2,325.6,0.00,15.8,19.6,"02:50:02",1
"16/10/19","03:10",0.0,16.9,95.5,1012.6,327.9,1.5,2.1,329.6,0.00,16.2,19.7,"03:03:52",1
"16/10/19","03:20",0.0,17.1,95.4,1012.6,323.0,1.6,2.2,319.5,0.00,16.4,19.7,"03:15:52",1
"16/10/19","03:30",0.0,17.2,95.0,1012.3,330.8,1.6,3.2,344.1,0.00,16.4,19.6,"03:21:44",1
"16/10/19","03:40",0.0,17.1,94.6,1012.1,332.3,1.5,2.0,342.9,0.00,16.3,19.7,"03:32:48",1
"16/10/19","03:50",0.0,17.0,94.7,1012.1,331.2,1.6,3.7,342.4,0.00,16.2,19.5,"03:47:12",1
"16/10/19","04:00",0.0,17.1,94.4,1012.1,334.8,1.6,3.7,328.5,0.00,16.2,19.5,"03:50:08",1
"16/10/19","04:10",0.0,17.1,94.5,1012.3,330.6,1.6,3.1,343.8,0.00,16.3,19.6,"04:09:20",1
"16/10/19","04:20",0.0,17.1,94.3,1012.3,336.7,1.6,2.9,332.5,0.00,16.2,19.7,"04:15:04",1
"16/10/19","04:30",0.0,17.0,94.2,1011.9,335.1,1.5,2.5,337.2,0.00,16.1,19.5,"04:22:16",1
"16/10/19","04:40",0.0,17.0,94.3,1012.1,319.5,1.3,1.9,316.2,0.00,16.1,19.3,"04:30:16",1
"16/10/19","04:50",0.0,17.1,94.2,1011.9,321.4,1.5,2.5,327.5,0.00,16.2,19.5,"04:47:44",1
"16/10/19","05:00",0.0,17.1,94.1,1012.1,315.1,1.1,1.7,306.0,0.00,16.2,19.3,"04:50:08",1
"16/10/19","05:10",0.0,17.0,94.1,1012.3,328.1,1.3,2.2,339.7,0.00,16.1,19.4,"05:04:08",1
"16/10/19","05:20",0.0,16.9,93.7,1012.1,336.0,1.2,2.0,332.5,0.00,15.9,19.3,"05:11:12",1
"16/10/19","05:30",0.0,16.7,93.7,1012.1,331.0,1.3,2.1,334.9,0.00,15.7,19.5,"05:28:32",1
"16/10/19","05:40",0.0,16.7,93.9,1012.1,315.1,1.2,1.4,322.6,0.00,15.8,19.4,"05:34:24",1
"16/10/19","05:50",0.0,16.6,93.9,1012.3,315.9,1.1,1.8,332.2,0.00,15.7,19.3,"05:49:28",1
"16/10/19","06:00",0.0,16.5,94.0,1011.4,325.3,1.3,2.0,340.0,0.00,15.6,19.1,"05:57:36",1
"16/10/19","06:10",0.0,16.5,94.0,1012.3,308.6,1.1,1.6,323.7,0.00,15.6,19.4,"06:00:48",1
"16/10/19","06:20",0.0,16.5,94.5,1012.3,319.1,1.1,1.7,339.0,0.00,15.7,19.2,"06:18:32",1
"16/10/19","06:30",0.0,16.6,94.4,1012.3,328.4,1.3,2.5,334.9,0.00,15.7,19.2,"06:22:08",1
"16/10/19","06:40",0.0,16.8,94.7,1012.3,315.0,1.1,1.7,339.5,0.00,16.0,19.1,"06:31:20",1
"16/10/19","06:50",0.0,17.0,94.3,1012.3,307.7,0.7,1.2,338.0,0.01,16.1,19.3,"06:40:48",1
"16/10/19","07:00",0.0,17.8,92.3,1012.1,315.8,0.7,2.0,342.8,0.02,16.6,19.2,"06:57:12",1
"16/10/19","07:10",0.0,18.4,88.4,1012.3,334.1,1.2,2.0,330.9,0.03,16.5,19.2,"07:02:48",1
"16/10/19","07:20",0.0,18.5,89.2,1012.3,321.6,1.0,1.8,344.9,0.03,16.7,19.2,"07:10:08",1
"16/10/19","07:30",0.0,19.1,87.9,1012.6,280.7,0.8,2.0,337.8,0.05,17.1,19.2,"07:29:36",1
"16/10/19","07:40",0.0,19.7,85.4,1012.6,332.7,1.1,1.8,344.4,0.07,17.2,19.4,"07:34:48",1
"16/10/19","07:50",0.0,20.3,83.6,1013.0,322.0,0.7,1.6,347.3,0.09,17.5,19.5,"07:46:32",1
"16/10/19","08:00",0.0,20.4,83.3,1012.8,322.1,0.8,1.9,341.7,0.10,17.5,19.4,"07:57:12",1
"16/10/19","08:10",0.0,20.6,82.1,1012.8,324.2,0.5,1.8,349.4,0.09,17.5,19.6,"08:08:48",1
"16/10/19","08:20",0.0,21.1,82.7,1012.6,280.9,0.5,1.8,236.2,0.15,18.1,19.7,"08:18:24",1
"16/10/19","08:30",0.0,21.1,80.3,1012.6,263.0,0.6,2.0,233.7,0.18,17.6,19.8,"08:29:04",1
"16/10/19","08:40",0.0,21.4,79.7,1012.6,235.0,0.8,2.9,214.1,0.20,17.8,20.0,"08:36:08",1
"16/10/19","08:50",0.0,21.8,76.2,1012.1,211.6,0.6,1.6,218.1,0.23,17.5,20.2,"08:42:16",1
"16/10/19","09:00",0.0,22.0,76.0,1012.1,117.5,0.7,1.4,112.6,0.26,17.6,20.2,"08:58:24",1
"16/10/19","09:10",0.0,22.4,74.0,1011.9,116.0,0.5,1.4,125.7,0.28,17.6,20.4,"09:00:56",1
"16/10/19","09:20",0.0,23.0,71.6,1011.4,123.7,0.3,0.9,64.6,0.30,17.6,20.5,"09:12:24",1
"16/10/19","09:30",0.0,23.3,72.5,1010.9,156.5,0.5,1.4,187.3,0.32,18.1,20.6,"09:28:00",1
"16/10/19","09:40",0.0,23.2,73.2,1010.7,131.1,0.6,1.6,129.3,0.29,18.2,20.8,"09:31:52",1
"16/10/19","09:50",0.0,23.8,69.0,1010.2,164.9,0.5,1.2,122.0,0.36,17.8,21.2,"09:43:36",1
"16/10/19","10:00",0.0,24.2,68.2,1010.2,194.9,0.3,1.1,128.8,0.36,18.0,21.2,"09:50:08",1
"16/10/19","10:10",0.0,24.8,64.6,1010.4,143.7,0.5,1.6,107.6,0.39,17.7,21.4,"10:04:16",1
"16/10/19","10:20",0.0,25.0,66.2,1010.4,69.4,0.6,1.6,12.8,0.41,18.3,21.6,"10:13:44",1
"16/10/19","10:30",0.0,24.9,64.4,1010.0,199.4,1.3,2.5,218.6,0.43,17.8,21.8,"10:23:36",1
"16/10/19","10:40",0.0,24.8,64.8,1009.7,198.9,1.2,3.5,219.2,0.33,17.8,22.1,"10:32:24",1
"16/10/19","10:50",0.0,25.9,61.1,1010.0,157.6,0.5,1.6,118.1,0.44,17.9,22.3,"10:45:36",1
"16/10/19","11:00",0.0,25.6,61.5,1010.0,201.8,0.6,2.8,226.7,0.33,17.7,22.5,"10:57:52",1
"16/10/19","11:10",0.0,25.8,63.3,1009.5,283.1,0.6,2.2,214.6,0.31,18.3,22.7,"11:09:00",1
"16/10/19","11:20",0.0,25.9,60.8,1009.5,211.3,1.0,2.5,214.9,0.41,17.8,22.8,"11:16:24",1
"16/10/19","11:30",0.0,26.4,57.7,1009.5,181.3,0.7,2.4,203.6,0.37,17.4,22.8,"11:22:00",1
"16/10/19","11:40",0.0,26.2,60.3,1009.5,158.5,0.7,1.8,123.3,0.30,17.9,23.3,"11:31:44",1
"16/10/19","11:50",0.0,26.8,58.3,1008.8,35.3,0.6,2.1,351.4,0.38,18.0,23.2,"11:47:20",1
"16/10/19","12:00",0.0,27.4,55.2,1009.3,81.4,0.6,1.7,355.6,0.51,17.7,23.5,"11:58:32",1
"16/10/19","12:10",0.0,27.3,54.3,1009.0,59.8,0.8,1.8,27.5,0.44,17.3,23.3,"12:08:08",1
"16/10/19","12:20",0.0,28.0,52.4,1008.8,56.6,0.8,1.8,59.0,0.54,17.4,23.8,"12:11:28",1
"16/10/19","12:30",0.0,27.5,54.1,1008.8,109.4,0.8,1.9,126.2,0.44,17.4,24.0,"12:28:48",1
"16/10/19","12:40",0.0,27.9,55.3,1009.0,149.2,0.6,1.9,27.6,0.40,18.2,24.0,"12:30:48",1
"16/10/19","12:50",0.0,28.0,52.8,1008.8,122.1,0.6,1.8,88.4,0.40,17.5,24.2,"12:42:32",1
"16/10/19","13:00",0.0,26.6,57.6,1007.8,160.2,1.0,2.4,171.4,0.16,17.6,24.1,"12:54:56",1
"16/10/19","13:10",0.0,26.4,59.8,1007.6,201.1,1.2,2.5,228.5,0.17,18.0,24.2,"13:00:24",1
"16/10/19","13:20",0.0,26.3,58.3,1007.1,233.8,0.7,2.4,219.3,0.15,17.5,24.5,"13:14:24",1
"16/10/19","13:30",0.0,27.2,57.4,1007.1,207.0,0.5,1.7,8.2,0.21,18.1,24.6,"13:29:04",1
"16/10/19","13:40",0.0,27.7,54.3,1007.1,359.4,0.3,1.2,4.2,0.25,17.7,24.4,"13:32:48",1
"16/10/19","13:50",0.0,27.4,54.6,1007.4,13.2,0.2,1.4,37.0,0.16,17.5,24.3,"13:48:48",1
"16/10/19","14:00",0.0,27.0,57.9,1007.1,16.8,0.5,1.3,24.0,0.11,18.0,24.4,"13:54:24",1
"16/10/19","14:10",0.0,26.4,57.7,1006.2,146.6,1.0,1.9,195.4,0.10,17.4,24.2,"14:09:28",1
"16/10/19","14:20",0.0,26.3,62.5,1005.5,238.7,0.6,1.4,209.6,0.09,18.6,24.2,"14:11:36",1
"16/10/19","14:30",0.0,26.3,60.6,1005.7,250.9,0.6,1.8,228.3,0.06,18.1,24.1,"14:25:20",1
"16/10/19","14:40",0.0,26.0,61.9,1006.4,271.8,0.7,1.6,227.4,0.03,18.2,24.1,"14:37:20",1
"16/10/19","14:50",0.0,25.8,62.1,1006.2,274.4,0.5,1.3,228.4,0.06,18.0,24.2,"14:40:24",1
"16/10/19","15:00",0.0,25.8,65.7,1006.4,311.2,0.6,1.1,331.4,0.04,18.9,24.2,"14:55:04",1
"16/10/19","15:10",0.0,25.6,68.7,1006.7,328.3,1.0,1.9,346.9,0.04,19.5,24.0,"15:08:00",1
"16/10/19","15:20",0.0,25.3,71.7,1006.4,313.1,0.8,1.9,349.5,0.02,19.9,23.8,"15:12:08",1
"16/10/19","15:30",0.0,25.2,72.6,1006.4,308.7,0.7,1.4,333.4,0.05,20.0,24.0,"15:23:04",1
"16/10/19","15:40",0.0,25.0,72.8,1006.7,312.8,0.7,1.3,353.0,0.03,19.8,23.7,"15:32:00",1
"16/10/19","15:50",0.0,24.9,72.4,1006.7,292.3,0.6,1.1,335.9,0.04,19.6,23.8,"15:41:52",1
"16/10/19","16:00",0.0,24.8,73.5,1006.9,293.4,0.5,0.9,327.9,0.02,19.8,23.8,"15:52:56",1
"16/10/19","16:10",0.0,24.6,74.5,1007.1,271.4,0.5,0.9,267.8,0.00,19.8,23.8,"16:06:00",1
"16/10/19","16:20",0.0,24.2,75.8,1006.9,292.2,0.5,0.8,316.5,0.00,19.7,23.7,"16:16:00",1
"16/10/19","16:30",0.0,23.9,77.1,1007.1,303.8,0.6,1.1,322.3,0.00,19.7,23.5,"16:22:56",1
"16/10/19","16:40",0.0,23.6,77.6,1007.1,311.8,0.7,1.2,320.3,0.00,19.5,23.4,"16:37:28",1
"16/10/19","16:50",0.0,23.5,78.5,1007.1,299.3,0.7,1.4,328.2,0.00,19.6,23.6,"16:45:04",1
"16/10/19","17:00",0.0,23.2,78.6,1007.4,289.6,0.6,1.0,269.2,0.00,19.3,23.3,"16:55:20",1
"16/10/19","17:10",0.0,23.1,78.3,1007.4,295.1,0.7,1.1,320.5,0.00,19.2,23.4,"17:04:08",1
"16/10/19","17:20",0.0,23.0,79.1,1007.4,282.9,0.7,1.0,306.8,0.00,19.2,23.2,"17:10:24",1
"16/10/19","17:30",0.0,22.8,80.5,1007.6,310.0,1.0,2.1,340.2,0.00,19.3,23.2,"17:26:56",1
"16/10/19","17:40",0.0,22.5,81.6,1008.1,298.6,0.8,1.4,340.1,0.00,19.2,23.2,"17:38:32",1
"16/10/19","17:50",0.0,22.2,82.3,1008.1,302.0,1.1,2.4,346.1,0.00,19.1,22.9,"17:43:44",1
"16/10/19","18:00",0.0,22.0,83.7,1008.1,299.2,0.8,1.4,313.4,0.00,19.2,23.0,"17:51:12",1
"16/10/19","18:10",0.0,21.8,85.1,1008.3,322.3,1.2,2.0,338.6,0.00,19.2,22.9,"18:03:52",1
"16/10/19","18:20",0.0,21.5,86.2,1008.1,302.4,0.7,1.3,325.3,0.00,19.1,22.9,"18:17:12",1
"16/10/19","18:30",0.0,21.3,86.9,1008.8,285.9,0.7,1.1,271.1,0.00,19.1,22.7,"18:26:16",1
"16/10/19","18:40",0.0,21.2,87.3,1008.3,307.0,0.8,1.6,332.7,0.00,19.0,22.6,"18:38:24",1
"16/10/19","18:50",0.0,21.2,87.9,1008.6,307.8,1.0,1.7,334.0,0.00,19.2,22.7,"18:41:44",1
"16/10/19","19:00",0.0,21.1,88.4,1008.3,299.8,0.8,1.1,311.8,0.00,19.1,22.8,"18:52:08",1
"16/10/19","19:10",0.0,21.0,88.5,1008.6,298.9,0.7,1.3,314.9,0.00,19.1,22.7,"19:00:48",1
"16/10/19","19:20",0.0,21.0,88.6,1009.0,285.0,1.0,1.3,266.2,0.00,19.1,22.6,"19:13:28",1
"16/10/19","19:30",0.0,21.0,88.2,1008.8,319.0,1.0,1.6,342.3,0.00,19.0,22.4,"19:27:52",1
"16/10/19","19:40",0.0,21.1,88.6,1008.6,320.1,1.2,1.8,326.5,0.00,19.2,22.4,"19:35:52",1
"16/10/19","19:50",0.0,21.0,88.6,1008.6,308.5,0.8,1.2,327.7,0.00,19.1,22.4,"19:42:00",1
"16/10/19","20:00",0.0,21.0,88.4,1008.6,286.0,0.7,1.1,311.6,0.00,19.0,22.2,"19:52:40",1
"16/10/19","20:10",0.0,20.9,88.1,1008.3,280.6,0.8,1.1,268.7,0.00,18.9,22.5,"20:00:40",1
"16/10/19","20:20",0.0,20.9,88.1,1008.8,311.3,1.1,1.6,317.7,0.00,18.9,22.2,"20:11:52",1
"16/10/19","20:30",0.0,20.8,88.1,1008.6,293.2,0.8,1.2,305.6,0.00,18.8,22.1,"20:20:48",1
"16/10/19","20:40",0.0,20.9,88.4,1009.0,297.8,0.6,1.0,305.6,0.00,19.0,22.1,"20:30:32",1
"16/10/19","20:50",0.0,20.8,88.5,1008.8,303.1,1.0,1.6,318.5,0.00,18.9,22.1,"20:44:48",1
"16/10/19","21:00",0.0,20.8,89.0,1008.8,310.2,0.7,1.7,339.8,0.00,19.0,22.1,"20:53:44",1
"16/10/19","21:10",0.0,20.8,89.3,1008.3,310.7,0.8,1.2,305.4,0.00,19.0,22.1,"21:05:44",1
"16/10/19","21:20",0.0,20.8,89.6,1008.6,297.9,0.8,1.1,319.3,0.00,19.1,22.0,"21:18:32",1
"16/10/19","21:30",0.0,20.7,89.5,1008.6,304.2,0.8,1.3,310.3,0.00,19.0,22.1,"21:22:08",1
"16/10/19","21:40",0.0,20.7,89.7,1008.8,301.5,1.0,1.4,322.7,0.00,19.0,22.0,"21:32:56",1
"16/10/19","21:50",0.0,20.6,89.8,1009.0,301.5,1.0,1.3,316.1,0.00,18.9,22.0,"21:40:56",1
"16/10/19","22:00",0.0,20.6,89.6,1008.8,300.9,0.8,1.9,319.3,0.00,18.9,22.1,"21:52:16",1
"16/10/19","22:10",0.0,20.7,89.9,1008.8,314.0,1.2,1.7,332.8,0.00,19.0,21.9,"22:05:12",1
"16/10/19","22:20",0.0,20.7,89.7,1008.8,330.7,1.2,1.6,343.7,0.00,19.0,21.9,"22:14:16",1
"16/10/19","22:30",0.0,20.7,89.4,1008.8,302.9,1.0,1.3,330.7,0.00,18.9,21.9,"22:20:08",1
"16/10/19","22:40",0.0,20.6,89.3,1009.0,295.4,1.0,1.4,318.5,0.00,18.8,21.7,"22:32:08",1
"16/10/19","22:50",0.0,20.6,89.4,1009.3,299.6,1.0,1.3,323.3,0.00,18.8,21.7,"22:48:56",1
"16/10/19","23:00",0.0,20.8,89.2,1008.8,324.2,1.3,2.1,328.4,0.00,19.0,21.9,"22:53:28",1
"16/10/19","23:10",0.0,20.9,88.9,1009.0,314.9,1.2,1.8,340.8,0.00,19.0,21.6,"23:09:28",1
"16/10/19","23:20",0.0,21.0,88.3,1008.8,304.9,1.1,1.9,335.0,0.00,19.0,21.8,"23:10:32",1
"16/10/19","23:30",0.0,20.9,88.3,1008.6,304.2,1.1,1.6,312.9,0.00,18.9,21.7,"23:22:08",1
"16/10/19","23:40",0.0,20.7,88.5,1008.8,314.0,1.0,1.6,335.9,0.00,18.8,21.6,"23:35:04",1
"16/10/19","23:50",0.0,20.6,88.7,1008.3,317.3,1.3,3.5,345.7,0.00,18.7,21.7,"23:44:32",1
"16/10/19","24:00",0.0,20.6,89.0,1008.6,322.6,1.3,2.5,351.4,0.00,18.8,21.7,"23:59:52",1
